Location: New Plymouth
(39.0670°S, 174.0830°E)
Time: 18:45:17
(UTC+12:00)

NOAA 19 - Pass Details

Date: 27 August 2019
Orbit: 840 x 862 km, 99.2° (Epoch: 16 September)

Event Time Altitude Azimuth Distance (km) Brightness Sun altitude
Rises 03:47:13 0° 51° (NE) 3,395 8.7 -36.9°
Reaches altitude 10° 03:49:59 10° 64° (ENE) 2,470 8.1 -36.4°
Maximum altitude 03:54:15 24° 116° (ESE) 1,702 7.3 -35.6°
Drops below altitude 10° 03:58:34 10° 167° (SSE) 2,500 7.9 -34.8°
Sets 04:01:22 0° 180° (S) 3,446 8.6 -34.2°
